Location: Newark
(7.0858°N, 171.3717°E)
Time: 06:16:55
(UTC+00:00)

Courier 1B - Pass Details

Date: 27 November 2020
Orbit: 962 x 1209 km, 28.3° (Epoch: 19 January)

Event Time Altitude Azimuth Distance (km) Brightness Sun altitude
Rises 07:52:41 0° 238° (WSW) 3,631 11.8 -23.6°
Reaches altitude 10° 07:55:18 10° 237° (WSW) 2,689 10.8 -24.2°
Maximum altitude 08:01:47 80° 150° (SSE) 995 7.4 -25.7°
Enters shadow 08:02:58 62° 80° (E) 1,101 7.4 -26.0°
Drops below altitude 10° 08:08:31 10° 64° (ENE) 2,790 - -27.3°
Sets 08:11:17 0° 63° (ENE) 3,775 - -27.9°
